Temp
2 3 3 3 3 3 3 2 2 3 3 2 2 2 2 1 1 1 1 1 1 0 0 -0 -0 -0 -0 -1 -2 -2 -3 -3 -3 -3 -3 -3 -4 -3 -3 -3 -3 -2 -1 -1
3 2 3 4 3 3 2 2 2 2 2 2 1 1 1 1 1 1 0 -1 -2 -2 -1 -1 -1 -1 -2 -2 -2 -3 -4 -4 -4 -4 -4 -4 -4 -4 -4 -3 -3 -3 -3 -2
3 2 3 3 2 3 3 3 3 3 2 1 1 0 -0 -0 -0 -1 -1 -1 -1 -1 -2 -2 -2 -3 -3 -3 -4 -4 -4 -4 -5 -5 -5 -5 -4 -4 -4 -4 -3 -3 -3 -3
2 3 -1 2 2 2 2 1 1 1 -0 -0 -1 -1 -1 -1 -2 -2 -2 -2 -2 -2 -3 -3 -3 -4 -4 -4 -4 -5 -5 -5 -5 -5 -5 -5 -5 -5 -5 -4 -4 -4 -4 -4
-0 -1 2 3 3 2 1 1 0 0 -0 -1 -1 -2 -2 -3 -3 -3 -3 -3 -3 -4 -4 -4 -4 -5 -5 -5 -5 -5 -6 -6 -6 -5 -5 -5 -5 -5 -5 -5 -5 -5 -6 -6
-2 -2 -3 1 1 1 1 -0 0 -0 -0 -1 -2 -3 -2 -3 -3 -3 -4 -4 -5 -5 -5 -6 -6 -6 -6 -7 -6 -6 -6 -6 -6 -6 -6 -6 -6 -6 -6 -6 -6 -6 -7 -7
-2 -3 -1 -0 -0 -1 -2 -1 -1 -1 -1 -2 -3 -3 -3 -4 -5 -6 -6 -6 -6 -7 -7 -7 -7 -6 -7 -8 -7 -7 -7 -7 -7 -8 -7 -7 -7 -8 -8 -8 -7 -8 -8 -8
-2 -4 -3 -1 -2 -3 -3 -3 -4 -4 -4 -4 -5 -6 -6 -6 -7 -7 -7 -7 -7 -7 -7 -8 -8 -8 -8 -8 -8 -8 -8 -8 -9 -9 -9 -9 -9 -9 -9 -9 -9 -9 -9 -9
-1 -1 -1 -2 -3 -3 -4 -4 -5 -5 -5 -6 -6 -6 -6 -7 -7 -7 -7 -8 -8 -9 -9 -9 -9 -10 -10 -9 -9 -9 -9 -9 -9 -9 -9 -10 -10 -10 -10 -10 -10 -10 -10 -10
-2 -2 -2 -3 -3 -4 -4 -5 -6 -6 -7 -7 -7 -7 -7 -8 -8 -9 -9 -9 -9 -10 -10 -10 -10 -10 -10 -10 -11 -11 -11 -11 -10 -10 -10 -11 -11 -12 -12 -12 -12 -11 -11 -11
-3 -4 -4 -4 -4 -5 -5 -6 -7 -7 -7 -7 -7 -8 -8 -9 -9 -10 -10 -10 -10 -11 -11 -11 -11 -11 -12 -12 -12 -11 -11 -11 -12 -12 -12 -12 -12 -12 -13 -13 -13 -13 -12 -12
-4 -5 -5 -5 -6 -6 -7 -8 -8 -8 -8 -8 -9 -9 -9 -10 -10 -11 -11 -11 -11 -11 -12 -12 -12 -12 -12 -13 -13 -13 -13 -13 -13 -13 -13 -13 -13 -13 -13 -13 -13 -13 -13 -13
-6 -7 -7 -7 -7 -8 -8 -9 -8 -8 -9 -10 -10 -10 -11 -11 -11 -11 -11 -12 -12 -12 -12 -13 -13 -13 -13 -13 -14 -14 -14 -14 -14 -13 -13 -13 -14 -14 -13 -13 -13 -13 -13 -13
-7 -8 -8 -8 -9 -9 -9 -9 -9 -9 -10 -11 -11 -11 -11 -11 -11 -11 -11 -12 -12 -13 -13 -13 -14 -13 -14 -14 -15 -15 -15 -14 -14 -14 -14 -14 -14 -14 -14 -14 -13 -13 -13 -14
-8 -9 -9 -10 -10 -10 -10 -10 -11 -11 -11 -12 -12 -12 -12 -12 -12 -12 -12 -12 -13 -13 -13 -14 -14 -14 -15 -15 -15 -15 -15 -15 -15 -15 -15 -15 -14 -14 -14 -15 -15 -14 -14 -14
-9 -9 -9 -10 -10 -10 -11 -11 -12 -12 -12 -11 -12 -12 -13 -13 -13 -13 -13 -13 -13 -14 -14 -14 -15 -15 -15 -15 -15 -15 -15 -15 -15 -15 -15 -15 -15 -15 -15 -15 -15 -15 -15 -15
-9 -9 -10 -10 -12 -12 -12 -12 -12 -12 -12 -12 -13 -13 -13 -13 -13 -13 -13 -13 -14 -14 -14 -15 -15 -15 -15 -15 -15 -15 -15 -15 -15 -15 -15 -16 -16 -16 -15 -15 -15 -15 -15 -15
-10 -10 -11 -11 -12 -12 -12 -12 -12 -12 -13 -13 -13 -13 -13 -13 -13 -13 -13 -14 -14 -14 -14 -15 -15 -16 -15 -16 -16 -16 -16 -15 -15 -15 -16 -16 -16 -16 -15 -15 -15 -15 -15 -15
-10 -11 -11 -12 -12 -12 -12 -12 -12 -12 -12 -13 -13 -13 -13 -13 -14 -14 -15 -15 -15 -14 -14 -15 -15 -16 -16 -16 -16 -16 -16 -16 -16 -16 -16 -16 -16 -15 -15 -15 -15 -15 -15 -15
-12 -12 -12 -12 -12 -12 -12 -12 -13 -13 -13 -13 -13 -14 -14 -14 -15 -15 -15 -15 -15 -15 -15 -16 -16 -16 -16 -16 -16 -16 -16 -16 -16 -16 -16 -16 -15 -15 -15 -15 -15 -16 -16 -16
-12 -12 -13 -13 -13 -13 -13 -13 -13 -13 -13 -14 -14 -14 -14 -14 -14 -15 -15 -15 -14 -15 -16 -16 -16 -16 -16 -16 -16 -16 -16 -16 -16 -16 -16 -16 -15 -15 -15 -15 -16 -16 -16 -16
-13 -13 -13 -13 -13 -13 -13 -13 -14 -14 -14 -14 -14 -15 -15 -15 -15 -15 -15 -15 -15 -16 -16 -16 -16 -16 -16 -16 -16 -16 -16 -16 -16 -16 -16 -16 -16 -16 -16 -16 -16 -16 -16 -16
-13 -13 -13 -13 -13 -14 -14 -14 -14 -14 -14 -14 -15 -15 -15 -15 -16 -16 -15 -16 -16 -16 -16 -16 -16 -16 -16 -16 -16 -16 -16 -16 -16 -16 -16 -16 -16 -16 -16 -16 -16 -16 -16 -16
-13 -14 -14 -14 -14 -14 -14 -14 -14 -15 -15 -15 -15 -15 -16 -16 -16 -16 -16 -16 -16 -16 -16 -16 -16 -16 -16 -16 -16 -16 -16 -16 -16 -16 -17 -17 -17 -17 -17 -17 -17 -17 -17 -16
-14 -15 -14 -14 -14 -14 -14 -14 -15 -15 -15 -15 -15 -15 -16 -16 -16 -16 -16 -16 -16 -16 -16 -16 -17 -16 -17 -17 -17 -17 -17 -17 -17 -17 -17 -17 -17 -17 -17 -17 -17 -17 -16 -16
-15 -15 -14 -14 -14 -15 -15 -15 -15 -15 -16 -16 -16 -16 -16 -16 -17 -17 -17 -17 -17 -17 -17 -17 -17 -17 -17 -17 -17 -17 -17 -17 -17 -17 -17 -17 -17 -17 -17 -17 -16 -16 -16 -16
-15 -15 -15 -15 -15 -16 -16 -16 -16 -16 -16 -16 -16 -16 -16 -17 -17 -17 -18 -18 -18 -18 -17 -18 -17 -17 -17 -17 -17 -17 -17 -17 -17 -17 -17 -17 -17 -16 -16 -16 -16 -16 -16 -16
Height
3102 3101 3102 3102 3103 3103 3103 3106 3106 3106 3107 3107 3107 3107 3106 3106 3106 3105 3103 3102 3101 3100 3098 3096 3095 3094 3092 3090 3086 3084 3080 3077 3075 3072 3070 3068 3066 3064 3062 3059 3056 3053 3050 3047
3099 3098 3098 3097 3098 3098 3099 3100 3100 3101 3102 3103 3101 3101 3103 3102 3102 3101 3099 3098 3097 3096 3095 3092 3088 3086 3084 3081 3078 3075 3072 3070 3068 3065 3063 3061 3059 3056 3054 3051 3047 3045 3041 3037
3095 3095 3094 3095 3094 3093 3093 3095 3096 3097 3098 3098 3098 3098 3098 3097 3096 3095 3094 3093 3091 3089 3087 3085 3082 3078 3075 3072 3069 3066 3064 3062 3060 3057 3055 3052 3050 3047 3044 3041 3037 3034 3030 3027
3096 3095 3097 3093 3092 3092 3093 3094 3094 3093 3093 3095 3094 3094 3092 3091 3090 3089 3087 3086 3084 3082 3080 3076 3074 3070 3068 3065 3061 3058 3056 3053 3051 3048 3045 3043 3040 3037 3034 3030 3026 3023 3019 3016
3098 3098 3095 3092 3091 3091 3090 3091 3090 3091 3091 3091 3090 3089 3089 3087 3085 3083 3081 3080 3077 3075 3073 3070 3067 3064 3061 3058 3054 3050 3047 3044 3041 3037 3034 3031 3027 3024 3020 3017 3014 3010 3007 3004
3097 3098 3095 3089 3088 3087 3087 3087 3086 3087 3087 3085 3085 3085 3085 3081 3078 3075 3072 3069 3065 3063 3061 3058 3055 3052 3048 3045 3042 3039 3034 3031 3028 3025 3021 3018 3014 3011 3008 3005 3002 2999 2996 2993
3093 3093 3087 3084 3084 3084 3085 3085 3081 3081 3081 3080 3079 3078 3076 3073 3070 3067 3063 3059 3056 3053 3049 3046 3043 3040 3036 3033 3030 3026 3022 3018 3016 3013 3008 3005 3002 2999 2996 2994 2991 2989 2986 2982
3090 3089 3083 3079 3079 3082 3079 3076 3076 3075 3074 3073 3071 3068 3066 3064 3061 3057 3052 3048 3045 3041 3038 3035 3032 3028 3024 3020 3016 3013 3010 3007 3003 2999 2996 2993 2989 2987 2984 2981 2979 2978 2975 2973
3086 3081 3078 3075 3073 3073 3071 3070 3067 3067 3065 3063 3060 3059 3056 3053 3049 3044 3040 3036 3033 3029 3026 3024 3020 3016 3011 3008 3004 3000 2997 2994 2991 2987 2984 2981 2978 2975 2973 2971 2967 2966 2964 2963
3077 3076 3075 3071 3068 3066 3064 3062 3061 3059 3057 3055 3052 3049 3045 3042 3037 3034 3030 3026 3022 3018 3015 3012 3009 3006 3002 2997 2992 2990 2987 2983 2980 2975 2972 2971 2968 2965 2963 2960 2959 2956 2953 2952
3067 3068 3068 3068 3062 3058 3056 3054 3053 3050 3048 3045 3041 3038 3034 3030 3027 3024 3021 3018 3014 3010 3006 3002 2999 2996 2992 2988 2983 2978 2976 2972 2968 2966 2962 2958 2958 2956 2953 2950 2948 2944 2943 2941
3057 3060 3057 3054 3052 3051 3050 3047 3044 3041 3039 3035 3032 3029 3026 3023 3020 3017 3014 3010 3006 3002 2996 2992 2989 2984 2981 2978 2973 2968 2964 2961 2957 2954 2953 2949 2947 2945 2944 2940 2938 2935 2933 2929
3050 3048 3048 3046 3043 3042 3040 3036 3035 3032 3028 3027 3024 3022 3020 3017 3014 3010 3008 3003 2998 2994 2987 2981 2977 2972 2968 2966 2961 2958 2954 2949 2946 2944 2942 2938 2937 2934 2929 2930 2927 2924 2922 2920
3040 3039 3038 3038 3034 3033 3031 3028 3025 3023 3021 3019 3017 3015 3013 3010 3007 3003 2999 2994 2989 2983 2977 2972 2966 2960 2958 2953 2948 2944 2940 2938 2934 2932 2929 2928 2926 2922 2919 2916 2911 2911 2911 2906
3031 3030 3028 3026 3026 3024 3020 3018 3016 3016 3014 3013 3012 3008 3005 3000 2996 2992 2987 2983 2978 2971 2965 2960 2954 2950 2947 2942 2937 2933 2929 2925 2922 2920 2918 2916 2914 2911 2908 2905 2902 2899 2897 2897
3021 3021 3019 3017 3016 3015 3014 3013 3011 3009 3007 3004 3001 2998 2993 2989 2984 2980 2975 2970 2965 2958 2952 2947 2942 2938 2933 2929 2926 2922 2918 2915 2912 2909 2907 2905 2902 2900 2897 2895 2892 2889 2886 2883
3012 3012 3010 3008 3008 3009 3009 3007 3004 3002 2998 2994 2991 2986 2981 2977 2973 2968 2963 2958 2952 2946 2941 2936 2930 2926 2922 2919 2914 2910 2907 2905 2903 2899 2897 2894 2892 2890 2887 2884 2881 2878 2875 2873
3007 3004 3003 3003 3004 3003 3002 3001 2998 2993 2988 2985 2980 2976 2970 2965 2961 2954 2949 2944 2938 2934 2930 2926 2920 2916 2913 2909 2904 2900 2897 2894 2892 2889 2888 2885 2883 2880 2877 2874 2871 2868 2865 2863
3002 3000 2999 2998 2997 2997 2995 2992 2989 2983 2978 2975 2969 2965 2958 2953 2947 2941 2936 2930 2926 2923 2920 2916 2912 2907 2904 2900 2896 2891 2887 2884 2882 2880 2878 2876 2873 2871 2868 2864 2860 2858 2855 2852
2996 2996 2995 2994 2992 2989 2985 2983 2978 2972 2968 2961 2955 2949 2942 2937 2932 2927 2923 2917 2916 2913 2908 2904 2901 2896 2893 2890 2886 2882 2879 2875 2872 2870 2868 2865 2863 2860 2856 2853 2849 2846 2844 2842
2991 2990 2988 2984 2982 2979 2975 2970 2964 2958 2951 2945 2940 2934 2929 2924 2920 2916 2910 2904 2904 2901 2896 2892 2888 2884 2880 2877 2873 2870 2868 2865 2862 2859 2857 2854 2852 2848 2845 2841 2837 2835 2832 2831
2984 2981 2978 2974 2969 2965 2961 2955 2950 2944 2939 2934 2929 2924 2917 2912 2907 2902 2898 2894 2889 2886 2882 2879 2875 2872 2868 2864 2861 2858 2856 2853 2851 2848 2845 2842 2839 2836 2833 2830 2827 2824 2822 2821
2975 2971 2967 2962 2956 2949 2945 2942 2937 2932 2927 2923 2917 2912 2906 2900 2894 2888 2881 2882 2877 2872 2868 2865 2863 2860 2857 2853 2850 2847 2844 2841 2839 2836 2834 2831 2828 2826 2823 2820 2817 2814 2813 2811
2964 2959 2954 2949 2944 2938 2934 2930 2925 2921 2916 2911 2905 2900 2893 2886 2880 2878 2872 2867 2864 2861 2857 2853 2851 2849 2846 2842 2839 2836 2833 2831 2828 2826 2823 2821 2818 2815 2813 2810 2807 2804 2803 2802
2952 2948 2943 2938 2933 2928 2922 2917 2911 2907 2901 2895 2890 2884 2879 2874 2867 2862 2858 2854 2851 2848 2845 2843 2841 2839 2836 2832 2829 2826 2824 2821 2818 2816 2813 2810 2807 2805 2802 2799 2797 2795 2794 2792
2942 2937 2932 2927 2921 2916 2911 2905 2898 2893 2886 2879 2874 2869 2863 2858 2853 2848 2844 2841 2837 2834 2832 2830 2828 2827 2825 2823 2820 2818 2815 2812 2809 2806 2803 2800 2797 2794 2791 2788 2786 2785 2784 2783
2932 2927 2921 2916 2912 2906 2900 2893 2886 2880 2874 2867 2860 2855 2849 2845 2840 2836 2832 2829 2826 2823 2820 2818 2816 2815 2813 2811 2809 2807 2804 2802 2799 2796 2792 2790 2787 2784 2781 2779 2777 2775 2773 2772
Wind_Speed
3 5 8 9 9 11 13 11 9 4 12 10 18 20 23 15 12 16 19 21 22 23 25 27 27 28 29 30 32 34 34 31 27 27 29 30 31 32 32 32 32 32 32 33
6 5 8 13 13 15 17 18 19 19 21 21 18 15 12 15 19 19 17 12 11 14 17 22 27 29 28 28 30 31 29 28 28 31 32 33 34 35 36 35 36 39 39 38
4 9 16 7 5 6 6 8 8 9 11 15 19 20 23 22 18 12 12 14 20 28 31 27 26 28 29 30 30 30 30 31 32 34 36 37 39 39 39 40 42 43 43 40
8 14 3 4 8 9 7 9 14 15 15 15 17 18 18 14 13 15 20 26 32 36 35 32 29 31 32 33 33 34 34 36 37 39 40 41 41 43 45 46 45 45 43 41
3 3 13 16 16 12 9 9 11 11 14 17 18 17 14 14 20 27 33 37 40 40 38 34 32 34 35 36 38 39 41 42 43 44 46 46 46 47 47 46 44 42 41 40
6 3 5 6 10 10 14 18 20 19 18 17 16 17 22 29 35 40 44 45 44 42 40 39 37 38 39 41 43 44 47 48 49 48 49 47 43 43 41 40 40 39 38 37
15 8 9 18 19 19 10 11 12 15 17 19 22 31 37 40 40 41 40 39 38 37 36 36 38 40 42 44 43 44 45 45 44 43 44 42 40 38 37 37 38 38 37 35
7 8 10 11 13 11 14 17 20 23 30 34 34 33 35 34 37 40 41 41 41 41 40 41 42 43 43 45 45 45 45 44 43 42 41 40 38 37 37 37 36 35 36 35
14 7 14 18 21 24 25 28 31 33 35 37 36 35 36 42 47 43 40 38 37 37 37 35 35 37 40 41 42 44 44 44 44 41 39 37 36 36 36 35 34 34 33 33
24 27 28 30 30 32 37 40 39 37 36 37 34 36 44 46 41 40 37 33 30 31 32 32 32 34 37 40 40 40 41 42 40 38 38 38 35 33 34 32 32 32 32 32
35 34 34 35 40 42 40 34 37 39 41 40 41 47 44 42 34 29 30 31 32 33 35 35 34 34 35 37 38 39 39 37 35 33 34 36 38 37 36 34 33 36 36 35
34 26 30 34 33 34 33 39 36 37 40 37 38 41 33 28 28 28 29 31 33 35 37 38 39 39 39 39 39 39 39 38 36 35 34 33 34 35 33 35 35 36 38 39
31 31 27 28 32 33 39 35 37 37 34 34 28 25 25 25 26 28 31 34 37 40 41 42 43 44 44 43 40 41 43 42 41 38 38 38 37 37 39 38 36 38 39 38
27 25 30 34 37 28 28 33 33 34 28 23 22 22 24 27 30 32 35 39 43 46 46 44 43 45 42 37 36 38 41 41 41 39 37 38 38 39 39 39 40 37 32 33
27 27 29 29 30 30 29 30 21 16 16 17 23 28 31 34 37 38 40 44 47 48 47 47 47 45 38 37 38 38 38 39 38 37 36 35 35 34 33 33 33 32 33 29
29 28 28 26 26 25 20 16 16 16 20 26 32 36 40 42 43 45 47 49 48 47 48 47 44 40 37 37 39 37 36 34 33 34 34 33 32 32 32 33 33 33 33 31
28 26 23 23 15 15 16 19 21 27 32 36 39 42 47 48 50 51 51 51 48 48 43 42 41 36 36 35 35 35 34 34 33 33 31 28 29 31 32 32 32 33 32 31
22 21 20 16 16 20 23 26 31 36 38 42 46 51 51 53 54 54 53 50 48 41 37 36 33 32 30 30 32 33 33 33 32 29 27 27 29 31 32 32 33 33 32 31
18 17 17 17 23 27 30 35 42 45 48 51 55 55 55 56 54 53 48 45 41 38 34 34 31 32 32 31 32 32 31 30 30 30 30 32 33 34 35 35 36 36 34 33
12 15 18 23 28 34 40 43 47 51 53 55 57 57 54 51 45 42 40 41 38 38 37 37 36 37 38 38 37 36 34 32 32 33 34 36 36 38 38 38 37 36 34 32
17 21 26 31 36 40 42 46 50 52 48 43 41 41 40 41 41 42 43 45 40 39 39 41 41 42 41 40 38 37 35 34 33 34 36 38 39 39 37 35 34 32 31 30
30 31 33 37 41 45 48 46 39 39 42 43 42 42 43 44 44 44 44 44 43 43 44 44 43 40 39 37 35 35 34 33 33 34 34 35 36 35 32 33 32 31 28 28
34 37 40 43 42 42 41 39 39 40 41 41 42 44 44 45 44 45 47 40 39 39 40 38 36 34 32 35 35 33 32 32 32 32 32 32 31 31 31 31 31 28 26 26
37 40 39 38 39 41 42 41 41 40 41 43 44 44 44 44 44 41 42 41 39 37 36 35 30 30 33 34 32 31 30 30 30 30 30 29 31 30 31 32 31 28 27 26
34 35 39 40 41 41 40 40 41 43 46 48 48 47 46 45 45 43 42 41 39 37 36 33 31 32 32 31 30 30 29 29 29 30 31 31 31 32 33 33 30 28 27 26
36 39 41 41 41 40 41 43 46 48 50 51 50 49 46 43 41 40 38 37 37 36 36 35 34 33 32 31 31 31 31 31 31 31 32 34 33 32 30 29 27 26 26 27
39 41 43 41 39 42 45 47 48 48 48 47 45 42 41 39 38 36 34 33 32 31 31 30 30 30 29 29 29 30 30 30 30 29 27 26 26 26 26 26 26 26 27 27
Wind_Direction
293 282 284 281 279 272 258 250 245 245 234 246 282 283 293 296 302 299 300 300 301 301 302 300 298 295 294 291 289 287 287 287 283 282 285 286 287 289 291 290 291 294 295 295
318 292 299 301 294 276 265 261 264 279 280 280 286 286 274 276 294 292 286 279 306 318 312 306 304 303 300 294 291 290 290 287 286 287 288 289 290 292 292 291 295 302 303 299
292 321 322 307 9 340 264 256 259 282 275 268 276 271 282 289 293 268 256 268 298 317 322 315 305 298 294 292 288 285 284 284 284 286 288 290 291 292 292 293 297 300 300 296
301 321 355 295 296 307 304 285 287 279 275 280 278 282 285 288 286 288 296 306 312 314 312 308 301 295 292 291 288 286 286 285 286 286 287 288 291 293 297 298 298 297 294 290
295 274 282 280 281 296 293 283 278 272 285 291 285 281 285 293 293 300 306 306 308 309 307 300 293 290 289 288 287 287 287 287 287 288 288 289 292 294 294 292 291 289 289 289
222 228 239 251 254 279 289 287 277 283 284 276 274 272 286 292 296 302 307 306 303 301 299 297 294 289 285 282 282 284 285 286 288 291 290 290 291 291 290 290 290 289 288 288
237 236 258 257 262 270 260 270 270 268 265 271 282 290 293 296 299 300 299 297 296 294 291 287 285 287 285 285 287 289 292 292 292 289 287 287 287 286 287 288 289 289 288 288
238 230 259 250 265 264 277 280 277 277 282 290 297 298 298 300 305 303 299 295 292 290 287 288 289 290 288 289 288 289 290 291 292 289 285 284 284 286 287 287 287 288 287 287
241 245 272 280 280 284 288 293 294 295 297 298 297 295 294 301 304 302 299 299 299 297 294 293 291 289 289 289 289 289 288 287 287 287 283 282 285 287 287 286 287 287 288 289
259 264 268 273 279 285 292 294 297 296 294 296 291 299 304 306 304 304 305 306 304 303 302 300 297 294 292 291 291 290 289 286 287 287 287 289 288 286 284 284 285 286 287 289
274 275 277 272 277 280 285 293 297 294 294 292 295 303 303 306 308 310 313 313 312 312 311 311 308 304 300 299 297 294 290 291 292 293 292 291 287 282 279 276 281 282 282 284
280 285 281 279 277 279 278 291 286 285 284 292 300 300 301 303 308 311 312 312 311 311 309 306 303 302 302 298 294 293 291 291 292 290 290 292 293 293 291 292 291 290 291 291
290 293 288 280 279 280 291 289 284 294 299 299 298 297 300 302 305 308 311 313 313 310 309 307 305 305 307 304 297 291 290 289 290 289 290 292 294 297 297 293 295 293 291 290
285 290 279 278 285 288 285 287 287 292 296 294 292 292 295 300 303 306 311 314 314 313 311 308 305 305 308 306 303 289 286 288 289 291 292 293 295 296 298 299 297 292 286 288
290 288 286 288 290 291 289 290 284 280 281 291 302 307 309 309 308 311 313 315 312 309 308 308 307 307 306 296 299 298 295 291 291 290 291 291 290 291 292 293 296 296 298 294
291 295 294 292 288 285 276 266 272 284 300 309 316 319 319 317 313 312 312 312 309 308 308 306 305 307 303 298 299 294 294 295 294 293 292 292 291 292 295 296 296 298 300 300
304 302 295 292 275 252 257 269 283 296 305 311 316 318 315 313 311 310 308 308 307 307 307 307 309 304 302 302 302 292 288 293 296 294 292 294 298 299 299 298 298 298 299 300
300 297 295 280 255 262 269 279 293 303 306 309 310 308 307 306 306 305 305 305 305 306 307 314 305 301 306 309 308 301 292 290 293 290 290 295 299 302 302 299 297 298 299 298
291 299 296 262 264 277 291 296 297 299 301 302 301 300 300 300 301 303 303 303 302 304 306 308 306 302 304 307 309 308 303 297 292 289 288 292 297 301 302 300 296 294 295 296
287 284 276 278 284 288 287 289 293 295 297 298 298 298 299 301 304 304 304 300 301 304 304 303 301 300 299 298 299 299 302 298 292 287 287 290 295 299 299 297 293 291 290 292
296 284 281 282 285 289 294 295 297 299 302 304 305 307 308 308 307 305 301 300 303 301 298 298 300 301 300 298 295 293 292 293 292 290 289 290 293 296 297 296 295 293 288 286
295 299 300 300 299 300 301 300 299 302 304 305 306 306 305 304 303 301 299 299 300 296 295 296 298 299 298 298 298 295 291 289 290 290 290 292 295 296 296 297 294 292 287 287
301 300 301 304 307 307 305 303 302 302 304 305 305 305 304 303 303 302 301 302 300 300 298 297 296 296 297 299 299 299 295 291 291 292 293 293 293 295 297 298 294 289 286 284
302 305 307 307 306 305 305 304 300 298 299 303 304 305 305 303 301 300 298 299 299 299 299 300 295 295 299 302 302 300 297 294 294 294 293 292 293 293 295 297 293 288 285 284
306 308 308 307 308 309 308 306 304 304 305 306 306 306 306 304 301 301 298 296 294 293 292 292 289 291 294 298 299 300 300 299 297 296 294 296 295 293 294 294 293 288 284 283
309 309 310 312 312 311 309 308 307 308 308 307 307 307 306 304 303 301 301 300 298 295 292 289 287 288 290 291 292 294 294 294 295 295 294 294 293 293 294 294 290 286 285 284
308 310 311 311 313 310 309 308 307 306 306 306 307 308 308 309 308 307 306 304 301 299 297 295 292 290 290 291 292 294 294 295 297 299 299 299 299 299 297 296 293 290 288 285